Address 0x4246eec169b889a70b42eabe134b8ef3f86279ad 2

 
 
Txn Hash Method
Block
From
To
Value [Txn Fee]
0x7020ec8eb4adb4f4881ef6ae6414f9987a9f0bd6a4a8dab30c91bc79f163c925Claim All Reward109505432021-09-16 1:01:4410 days 20 hrs ago0x4246eec169b889a70b42eabe134b8ef3f86279adOUT 0xc62fb8438f756651a3630bc13bbe044d530f82f90 BNB0.00390097
0xf97c56ac9c5e1da8156d94e6fde196f330610b6f054e441d3d10a9f748be4910Deposit109504762021-09-16 0:58:2310 days 20 hrs ago0x4246eec169b889a70b42eabe134b8ef3f86279adOUT 0xe056fb8ce6a3437530b1aff799185a009b25990b0 BNB0.00051794
0x6b35e6ea89a5f16d92910df12b855a77ccb73e3bfa1463b63592778c3915a8b2Approve109504672021-09-16 0:57:5610 days 20 hrs ago0x4246eec169b889a70b42eabe134b8ef3f86279adOUT Biswap: BSW Token0 BNB0.00022196
0x21a52a9d836de2a4d52b6c8d50f5c94cfe1f6852d78728b3088a0bdf4ee20474Deposit109504302021-09-16 0:56:0510 days 20 hrs ago0x4246eec169b889a70b42eabe134b8ef3f86279adOUT 0xda730dc51c5c6c3fcbfc00676df795c3584581870 BNB0.000260845
0x7426b488d5a4aa6fd9e60ab7ccd17b27a377da6f8214c1c27fce44d70d673ac7Approve109504212021-09-16 0:55:3810 days 20 hrs ago0x4246eec169b889a70b42eabe134b8ef3f86279adOUT Ripple: XRP Token0 BNB0.00022197
0x79e3baf0657b3e6ff317379daec8437bdef256e76ce3089e46b7dfd441e6b78fDeposit109504122021-09-16 0:55:1110 days 20 hrs ago0x4246eec169b889a70b42eabe134b8ef3f86279adOUT 0x8ddfcdca3019518feb2a06d42748869b2c916f2d0 BNB0.000260845
0x3c2ed3cf5584fb1d23b653c02b0b0c9717906320700396906ab080d8b5f6af54Approve109503882021-09-16 0:53:5910 days 20 hrs ago0x4246eec169b889a70b42eabe134b8ef3f86279adOUT Ripple: XRP Token0 BNB0.00022203
0x8994af92261d1dd6d61c2e49d43e9d0ba310398b47998c5c2ce1f9625eeb9a31Withdraw109501672021-09-16 0:42:5610 days 20 hrs ago0x4246eec169b889a70b42eabe134b8ef3f86279adOUT Binance: WBNB Token0 BNB0.00018652
0x3e6c72c07e418196d70d9770bbf0bad5efc8b29c580309a1065c5106c3d84791Withdraw109500822021-09-16 0:38:4110 days 20 hrs ago0x4246eec169b889a70b42eabe134b8ef3f86279adOUT 0x015c8be8d944b0190a8c7280ca874169713a44c10 BNB0.00040729
0x002a3e679eae3ffbc2bcd1eb861480fdfd6a72803858b8064ecd63668623cff6Withdraw109500512021-09-16 0:37:0810 days 20 hrs ago0x4246eec169b889a70b42eabe134b8ef3f86279adOUT 0x0c1e98645a1ee7f7a72e7491d77ae39676e457c90 BNB0.000116965
0x5258297fc43e12f3f04af1c969b726787c23a323f0afeac0bdd6ce2c2df380b2Withdraw109500402021-09-16 0:36:3510 days 20 hrs ago0x4246eec169b889a70b42eabe134b8ef3f86279adOUT 0x7517c3d01e931062b7cb2155ccc75e5b29358dc60 BNB0.00033576
0x72d23bab353456756f70f60ea2a0cdb31bfaed6992984e0555f316064233c26eWithdraw109500312021-09-16 0:36:0810 days 20 hrs ago0x4246eec169b889a70b42eabe134b8ef3f86279adOUT 0x994f7b32eea35ade9b8bfd3cef19e9b6efe0cb240 BNB0.00041088
0xc0d8e5cdc4eac28b0c4db98caeb6d5e8fb111fb9f5450e534c14941e4d16bc02Withdraw109500242021-09-16 0:35:4710 days 20 hrs ago0x4246eec169b889a70b42eabe134b8ef3f86279adOUT 0x0c1e98645a1ee7f7a72e7491d77ae39676e457c90 BNB0.000116965
0x0c37d43829c30d4baf790508c0980cf87511f8c782732db55c2756164e0fffa7Withdraw109500162021-09-16 0:35:2310 days 20 hrs ago0x4246eec169b889a70b42eabe134b8ef3f86279adOUT 0x0c1e98645a1ee7f7a72e7491d77ae39676e457c90 BNB0.000243175
0x7916ef2e346cde5db06d585818ff119169ed65d79274e81956aa082e771db7d4Deposit109500082021-09-16 0:34:5910 days 20 hrs ago0x4246eec169b889a70b42eabe134b8ef3f86279adOUT 0x0c1e98645a1ee7f7a72e7491d77ae39676e457c90 BNB0.000371515
0x35ba9e9ee3b5dbb72e090ed1b4c503893f09f89af62e954ce2979547fa878be0Deposit109500032021-09-16 0:34:4410 days 20 hrs ago0x4246eec169b889a70b42eabe134b8ef3f86279adOUT 0x1362b362d49c4b393a1ad2bbde4718366df3ba650 BNB0.000242395
0xc15bd6469590caa791bbbe046af70a4c5beb215af935ee7e95963c8586e610ecWithdraw109499982021-09-16 0:34:2910 days 20 hrs ago0x4246eec169b889a70b42eabe134b8ef3f86279adOUT 0x1362b362d49c4b393a1ad2bbde4718366df3ba650 BNB0.00040735
0xa85efcd20da993f8561762665d4106c3cc1da295aff67344007d95c6bc37328aClaim All Reward105937462021-09-03 13:28:4923 days 7 hrs ago0x4246eec169b889a70b42eabe134b8ef3f86279adOUT 0xc62fb8438f756651a3630bc13bbe044d530f82f90 BNB0.004282865
0x5f2e5da9b9d72257fc644e050d41fbf662a71939eac54a83da7e8c3136715067Transfer105711992021-09-02 18:25:5924 days 2 hrs ago0x4246eec169b889a70b42eabe134b8ef3f86279adOUT 0x0e690ee6fcc26bc09fed2d2287268c23d4a81e420 BNB0.000272675
0xd33acb317117f49d89bff17fcc299873b97d522a3afa5859d900a875a836d724Transfer105711532021-09-02 18:23:3724 days 2 hrs ago0x4246eec169b889a70b42eabe134b8ef3f86279adOUT 0x0e690ee6fcc26bc09fed2d2287268c23d4a81e420 BNB0.000272675
0x61e6e52031610c536a828d7110775d8f3faea1524f695af7824f799207a27efeApprove105706162021-09-02 17:55:5724 days 3 hrs ago0x4246eec169b889a70b42eabe134b8ef3f86279adOUT 0x0e690ee6fcc26bc09fed2d2287268c23d4a81e420 BNB0.000222625
0x4a1ae68bc8d137e00842e938fbe704b45f18d1e896e998644413e23f2465a9c7Deposit103748472021-08-26 20:10:0531 days 53 mins ago0x4246eec169b889a70b42eabe134b8ef3f86279adOUT Pancake Bunny: Bunny Maximizer (Earn BUNNY)0 BNB0.001512905
0xa73cb60d705d0e63c883cd80d1ee5d70c651e36f07c77b3b02bc6350fb90b46bGet Reward103748362021-08-26 20:09:3231 days 53 mins ago0x4246eec169b889a70b42eabe134b8ef3f86279adOUT Pancake Bunny: Bunny Maximizer (Earn BUNNY)0 BNB0.00160818
0x2a014fe0778911e4a0ff4c9c03cfe3a36a2c57b9a95f894ee231b5939d8d4f17Api Deposit To M...103746602021-08-26 20:00:4431 days 1 hr ago0x4246eec169b889a70b42eabe134b8ef3f86279adOUT 0x216944baf1182e49252223e78b783fe7d5a022230 BNB0.00131738
0x9f106d9270edb8799903f7df696b3f80dc543260586aa90995694d30dcaf466bDeposit103478802021-08-25 21:35:5531 days 23 hrs ago0x4246eec169b889a70b42eabe134b8ef3f86279adOUT 0x015c8be8d944b0190a8c7280ca874169713a44c10 BNB0.00051794
[ Download CSV Export 
Latest 2 internal transactions
Parent Txn Hash Block From To Value
0x8994af92261d1dd6d61c2e49d43e9d0ba310398b47998c5c2ce1f9625eeb9a31109501672021-09-16 0:42:5610 days 20 hrs ago Binance: WBNB Token0x4246eec169b889a70b42eabe134b8ef3f86279ad0.1 BNB
0xabd6f429fef97381a8de242c3ef930941fc833841bc69704a7c6ee249d6bd78b99738902021-08-12 19:59:0045 days 1 hr ago Binance: WBNB Token0x4246eec169b889a70b42eabe134b8ef3f86279ad0.047998960120831972 BNB
[ Download CSV Export 
Loading

Contract Name:
0 BNB

Compiler Version
0

Optimization Enabled:
0 BNB

Other Settings:
-NA-
Block Transaction Gas Used Reward
Age Block Fee Address BC Fee Address Voting Power Jailed Incoming
Block Uncle Number Difficulty Gas Used Reward
Loading
Loading
Make sure to use the "Vote Down" button for any spammy posts, and the "Vote Up" for interesting conversations.